sat.trackr.live / text

‹ back to catalog

STARLINK-1216

NORAD 45185 · 2020-012H

PAYLOAD ACTIVE UNKNOWN

§ Identity

Operator
Country
US
Launch date
2020-02-17
Launch site
AFETR
Launch vehicle
Mass (kg)
RCS (m²)

Purposes: comms

External: N2YO · Heavens-Above · Gunter

§ Orbital elements

Epoch: 2026-05-25T02:33:42.181344Z

Period
93.89 min
Inclination
53.1579°
Eccentricity
0.0002868
Mean motion
15.33692851 rev/d
Perigee alt
462.8 km
Apogee alt
466.8 km
Semi-major
6,842.9 km
B*
9.9053e-4
RAAN
43.6623°
Arg perigee
116.0373°
Mean anomaly
244.0924°
Rev number
34,660

§ Raw data

STARLINK-12161 45185U 20012H   26145.10673821  .00032495  00000+0  99053-3 0  99952 45185  53.1579  43.6623 0002868 116.0373 244.0924 15.33692851346601

JSON: /api/v1/satellites/45185 · /tle

For live sub-satellite position, see the globe view (requires WebGL).

§ Visibility from observer

Set your observer location to see the next 7 days of passes ≥ 10°. The values pass through the URL so the page stays shareable.

No JS? Fill the form by hand. The geolocation button needs JavaScript.